| time (UTC) | temp F | wind direction | speed MPH | gust MPH | rain 1hr in | rain 24hr in | rain mn in | humidity % | barometer mb |
| 20260506202534 | 59 | 305 | 13.0 | 22.0 | 0.00 | 0.00 | 0.00 | 25 | 1018.0 |
| 20260506202031 | 58 | 297 | 17.0 | 23.0 | 0.00 | 0.00 | 0.00 | 24 | 1018.0 |
| 20260506201531 | 58 | 4 | 11.0 | 23.0 | 0.00 | 0.00 | 0.00 | 23 | 1018.0 |
| 20260506201031 | 58 | 328 | 13.0 | 19.0 | 0.00 | 0.00 | 0.00 | 25 | 1018.0 |
| 20260506200534 | 58 | 313 | 12.0 | 18.0 | 0.00 | 0.00 | 0.00 | 25 | 1018.0 |
| 20260506200031 | 57 | 304 | 13.0 | 19.0 | 0.00 | 0.00 | 0.00 | 24 | 1018.0 |
| 20260506195532 | 57 | 347 | 11.0 | 18.0 | 0.00 | 0.00 | 0.00 | 24 | 1018.0 |
| 20260506195031 | 56 | 290 | 13.0 | 19.0 | 0.00 | 0.00 | 0.00 | 24 | 1018.0 |
| 20260506194531 | 56 | 315 | 14.0 | 32.0 | 0.00 | 0.00 | 0.00 | 24 | 1018.0 |
| 20260506194031 | 57 | 300 | 13.0 | 20.0 | 0.00 | 0.00 | 0.00 | 24 | 1018.0 |
| 20260506193531 | 56 | 307 | 16.0 | 25.0 | 0.00 | 0.00 | 0.00 | 25 | 1018.0 |
| 20260506193033 | 56 | 301 | 12.0 | 25.0 | 0.00 | 0.00 | 0.00 | 24 | 1018.0 |
| 20260506192531 | 56 | 285 | 14.0 | 19.0 | 0.00 | 0.00 | 0.00 | 24 | 1018.0 |
| 20260506192032 | 56 | 291 | 17.0 | 31.0 | 0.00 | 0.00 | 0.00 | 25 | 1018.0 |
| 20260506191531 | 55 | 295 | 14.0 | 21.0 | 0.00 | 0.00 | 0.00 | 25 | 1018.0 |
| 20260506191029 | 55 | 305 | 11.0 | 18.0 | 0.00 | 0.00 | 0.00 | 26 | 1018.0 |
| 20260506190534 | 55 | 282 | 12.0 | 16.0 | 0.00 | 0.00 | 0.00 | 26 | 1018.0 |
| 20260506190031 | 55 | 320 | 11.0 | 20.0 | 0.00 | 0.00 | 0.00 | 24 | 1018.0 |
| 20260506185534 | 55 | 292 | 13.0 | 19.0 | 0.00 | 0.00 | 0.00 | 25 | 1018.0 |
| 20260506185032 | 55 | 292 | 15.0 | 24.0 | 0.00 | 0.00 | 0.00 | 26 | 1018.0 |
| 20260506184530 | 54 | 286 | 7.0 | 15.0 | 0.00 | 0.00 | 0.00 | 25 | 1018.0 |
| 20260506184032 | 54 | 284 | 18.0 | 29.0 | 0.00 | 0.00 | 0.00 | 26 | 1018.0 |
| 20260506183529 | 54 | 281 | 10.0 | 17.0 | 0.00 | 0.00 | 0.00 | 28 | 1018.0 |
| 20260506183029 | 54 | 298 | 13.0 | 21.0 | 0.00 | 0.00 | 0.00 | 28 | 1018.0 |
| 20260506182531 | 54 | 290 | 15.0 | 22.0 | 0.00 | 0.00 | 0.00 | 28 | 1018.0 |
| 20260506182031 | 54 | 291 | 16.0 | 24.0 | 0.00 | 0.00 | 0.00 | 29 | 1018.0 |
| 20260506181529 | 54 | 284 | 16.0 | 23.0 | 0.00 | 0.00 | 0.00 | 29 | 1018.0 |
| 20260506181029 | 54 | 303 | 14.0 | 21.0 | 0.00 | 0.00 | 0.00 | 30 | 1018.0 |
| 20260506180531 | 53 | 297 | 8.0 | 16.0 | 0.00 | 0.00 | 0.00 | 31 | 1018.0 |
| 20260506180029 | 53 | 299 | 13.0 | 20.0 | 0.00 | 0.00 | 0.00 | 31 | 1018.0 |
| 20260506175533 | 53 | 292 | 9.0 | 16.0 | 0.00 | 0.00 | 0.00 | 32 | 1018.0 |
| 20260506175031 | 53 | 286 | 13.0 | 23.0 | 0.00 | 0.00 | 0.00 | 31 | 1018.0 |
| 20260506174531 | 53 | 295 | 9.0 | 13.0 | 0.00 | 0.00 | 0.00 | 32 | 1018.0 |
| 20260506174031 | 53 | 313 | 12.0 | 21.0 | 0.00 | 0.00 | 0.00 | 34 | 1018.0 |
| 20260506173533 | 52 | 284 | 14.0 | 20.0 | 0.00 | 0.00 | 0.00 | 33 | 1018.0 |
| 20260506173033 | 52 | 332 | 12.0 | 19.0 | 0.00 | 0.00 | 0.00 | 31 | 1018.0 |
| 20260506172531 | 52 | 295 | 12.0 | 21.0 | 0.00 | 0.00 | 0.00 | 32 | 1018.0 |
| 20260506172032 | 52 | 283 | 11.0 | 16.0 | 0.00 | 0.00 | 0.00 | 31 | 1018.0 |
| 20260506171529 | 52 | 319 | 8.0 | 11.0 | 0.00 | 0.00 | 0.00 | 32 | 1018.0 |
| 20260506171032 | 52 | 292 | 11.0 | 19.0 | 0.00 | 0.00 | 0.00 | 29 | 1018.0 |
| 20260506170531 | 52 | 314 | 10.0 | 17.0 | 0.00 | 0.00 | 0.00 | 33 | 1018.0 |
| 20260506170031 | 51 | 297 | 10.0 | 17.0 | 0.00 | 0.00 | 0.00 | 34 | 1018.0 |
| 20260506165532 | 51 | 299 | 9.0 | 17.0 | 0.00 | 0.00 | 0.00 | 31 | 1018.0 |
| 20260506165030 | 51 | 300 | 11.0 | 16.0 | 0.00 | 0.00 | 0.00 | 33 | 1018.0 |
| 20260506164529 | 51 | 293 | 10.0 | 15.0 | 0.00 | 0.00 | 0.00 | 36 | 1018.0 |
| 20260506164033 | 51 | 289 | 9.0 | 17.0 | 0.00 | 0.00 | 0.00 | 37 | 1017.0 |
| 20260506163531 | 51 | 341 | 9.0 | 16.0 | 0.00 | 0.00 | 0.00 | 37 | 1017.0 |
| 20260506163034 | 50 | 288 | 9.0 | 21.0 | 0.00 | 0.00 | 0.00 | 39 | 1017.0 |
| 20260506162533 | 50 | 303 | 12.0 | 17.0 | 0.00 | 0.00 | 0.00 | 39 | 1017.0 |
| 20260506162033 | 50 | 324 | 9.0 | 21.0 | 0.00 | 0.00 | 0.00 | 39 | 1017.0 |
| 20260506161532 | 50 | 300 | 9.0 | 18.0 | 0.00 | 0.00 | 0.00 | 43 | 1017.0 |
| 20260506161033 | 50 | 296 | 9.0 | 14.0 | 0.00 | 0.00 | 0.00 | 43 | 1017.0 |
| 20260506160532 | 50 | 339 | 7.0 | 14.0 | 0.00 | 0.00 | 0.00 | 42 | 1017.0 |
| 20260506160034 | 50 | 299 | 13.0 | 22.0 | 0.00 | 0.00 | 0.00 | 42 | 1017.0 |
| 20260506155533 | 50 | 292 | 9.0 | 18.0 | 0.00 | 0.00 | 0.00 | 47 | 1017.0 |
| 20260506155029 | 50 | 297 | 10.0 | 17.0 | 0.00 | 0.00 | 0.00 | 45 | 1017.0 |
| 20260506154529 | 49 | 319 | 10.0 | 16.0 | 0.00 | 0.00 | 0.00 | 46 | 1017.0 |
| 20260506154030 | 49 | 305 | 10.0 | 21.0 | 0.00 | 0.00 | 0.00 | 43 | 1017.0 |
| 20260506153532 | 49 | 313 | 9.0 | 17.0 | 0.00 | 0.00 | 0.00 | 49 | 1017.0 |
| 20260506153031 | 49 | 316 | 12.0 | 26.0 | 0.00 | 0.00 | 0.00 | 47 | 1017.0 |
| 20260506152531 | 49 | 297 | 14.0 | 22.0 | 0.00 | 0.00 | 0.00 | 47 | 1017.0 |
| 20260506152032 | 49 | 300 | 15.0 | 23.0 | 0.00 | 0.00 | 0.00 | 46 | 1017.0 |
| 20260506151531 | 49 | 296 | 12.0 | 17.0 | 0.00 | 0.00 | 0.00 | 47 | 1017.0 |
| 20260506151030 | 49 | 286 | 17.0 | 29.0 | 0.00 | 0.00 | 0.00 | 44 | 1017.0 |
| 20260506150533 | 49 | 286 | 11.0 | 15.0 | 0.00 | 0.00 | 0.00 | 44 | 1017.0 |
| 20260506150036 | 49 | 299 | 9.0 | 17.0 | 0.00 | 0.00 | 0.00 | 50 | 1016.0 |
| 20260506145531 | 49 | 294 | 12.0 | 17.0 | 0.00 | 0.00 | 0.00 | 54 | 1016.0 |
| 20260506145031 | 48 | 294 | 13.0 | 19.0 | 0.00 | 0.00 | 0.00 | 55 | 1016.0 |
| 20260506144532 | 48 | 289 | 7.0 | 15.0 | 0.00 | 0.00 | 0.00 | 55 | 1016.0 |
| 20260506144029 | 48 | 312 | 9.0 | 12.0 | 0.00 | 0.00 | 0.00 | 54 | 1016.0 |
| 20260506143530 | 48 | 332 | 7.0 | 10.0 | 0.00 | 0.00 | 0.00 | 52 | 1016.0 |
| 20260506143032 | 48 | 300 | 10.0 | 14.0 | 0.00 | 0.00 | 0.00 | 53 | 1016.0 |
| 20260506142529 | 48 | 310 | 2.0 | 4.0 | 0.00 | 0.00 | 0.00 | 54 | 1016.0 |
| 20260506142033 | 47 | 297 | 7.0 | 15.0 | 0.00 | 0.00 | 0.00 | 54 | 1016.0 |
| 20260506141534 | 47 | 359 | 7.0 | 12.0 | 0.00 | 0.00 | 0.00 | 54 | 1016.0 |
| 20260506141031 | 47 | 333 | 8.0 | 12.0 | 0.00 | 0.00 | 0.00 | 54 | 1016.0 |
| 20260506140533 | 47 | 344 | 9.0 | 13.0 | 0.00 | 0.00 | 0.00 | 55 | 1016.0 |
| 20260506140033 | 47 | 8 | 7.0 | 8.0 | 0.00 | 0.00 | 0.00 | 56 | 1016.0 |
| 20260506135530 | 47 | 359 | 3.0 | 6.0 | 0.00 | 0.00 | 0.00 | 60 | 1016.0 |
| 20260506135031 | 46 | 350 | 6.0 | 13.0 | 0.00 | 0.00 | 0.00 | 58 | 1016.0 |
| 20260506134534 | 46 | 61 | 6.0 | 7.0 | 0.00 | 0.00 | 0.00 | 58 | 1016.0 |
| 20260506134030 | 46 | 90 | 4.0 | 7.0 | 0.00 | 0.00 | 0.00 | 50 | 1016.0 |
| 20260506133531 | 45 | 64 | 6.0 | 10.0 | 0.00 | 0.00 | 0.00 | 54 | 1016.0 |
| 20260506133031 | 45 | 81 | 9.0 | 10.0 | 0.00 | 0.00 | 0.00 | 59 | 1016.0 |
| 20260506132531 | 44 | 93 | 6.0 | 9.0 | 0.00 | 0.00 | 0.00 | 65 | 1016.0 |
| 20260506132035 | 44 | 112 | 6.0 | 6.0 | 0.00 | 0.00 | 0.00 | 62 | 1016.0 |
| 20260506131531 | 43 | 91 | 6.0 | 9.0 | 0.00 | 0.00 | 0.00 | 63 | 1016.0 |
| 20260506131029 | 42 | 26 | 2.0 | 4.0 | 0.00 | 0.00 | 0.00 | 63 | 1015.0 |
| 20260506130531 | 42 | 90 | 6.0 | 7.0 | 0.00 | 0.00 | 0.00 | 67 | 1015.0 |
| 20260506130033 | 42 | 0 | 0.0 | 0.0 | 0.00 | 0.00 | 0.00 | 69 | 1015.0 |
| 20260506125529 | 42 | 101 | 2.0 | 6.0 | 0.00 | 0.00 | 0.00 | 67 | 1015.0 |
| 20260506125033 | 42 | 0 | 0.0 | 0.0 | 0.00 | 0.00 | 0.00 | 67 | 1015.0 |
| 20260506124531 | 43 | 328 | 2.0 | 4.0 | 0.00 | 0.00 | 0.00 | 67 | 1015.0 |
| 20260506124031 | 43 | 270 | 8.0 | 13.0 | 0.00 | 0.00 | 0.00 | 65 | 1015.0 |
| 20260506123531 | 43 | 288 | 9.0 | 13.0 | 0.00 | 0.00 | 0.00 | 65 | 1015.0 |
| 20260506123032 | 43 | 284 | 11.0 | 16.0 | 0.00 | 0.00 | 0.00 | 66 | 1015.0 |
| 20260506122531 | 42 | 277 | 5.0 | 8.0 | 0.00 | 0.00 | 0.00 | 68 | 1015.0 |
| 20260506122038 | 43 | 47 | 4.0 | 6.0 | 0.00 | 0.00 | 0.00 | 70 | 1015.0 |
| 20260506121531 | 43 | 331 | 3.0 | 7.0 | 0.00 | 0.00 | 0.00 | 69 | 1015.0 |
| 20260506121033 | 43 | 298 | 5.0 | 11.0 | 0.00 | 0.00 | 0.00 | 70 | 1015.0 |
| 20260506120531 | 43 | 294 | 7.0 | 14.0 | 0.00 | 0.00 | 0.00 | 73 | 1015.0 |
| 20260506120031 | 43 | 153 | 1.0 | 5.0 | 0.00 | 0.00 | 0.00 | 73 | 1015.0 |
| 20260506115532 | 43 | 93 | 3.0 | 4.0 | 0.00 | 0.00 | 0.00 | 82 | 1015.0 |
| 20260506115031 | 44 | 0 | 0.0 | 0.0 | 0.00 | 0.00 | 0.00 | 82 | 1015.0 |
| 20260506114531 | 44 | 106 | 3.0 | 4.0 | 0.00 | 0.00 | 0.00 | 78 | 1015.0 |
| 20260506114032 | 45 | 121 | 3.0 | 4.0 | 0.00 | 0.00 | 0.00 | 75 | 1015.0 |
| 20260506113529 | 45 | 105 | 7.0 | 9.0 | 0.00 | 0.00 | 0.00 | 74 | 1015.0 |
| 20260506113035 | 45 | 61 | 10.0 | 12.0 | 0.00 | 0.00 | 0.00 | 69 | 1015.0 |
| 20260506112531 | 45 | 345 | 6.0 | 9.0 | 0.00 | 0.00 | 0.00 | 69 | 1015.0 |
| 20260506112031 | 45 | 61 | 1.0 | 3.0 | 0.00 | 0.00 | 0.00 | 70 | 1015.0 |
| 20260506111533 | 45 | 83 | 0.0 | 0.0 | 0.00 | 0.00 | 0.00 | 74 | 1014.0 |
| 20260506111031 | 44 | 16 | 4.0 | 5.0 | 0.00 | 0.00 | 0.00 | 73 | 1014.0 |
| 20260506110534 | 44 | 78 | 4.0 | 5.0 | 0.00 | 0.00 | 0.00 | 78 | 1014.0 |
| 20260506110033 | 44 | 70 | 6.0 | 9.0 | 0.00 | 0.00 | 0.00 | 80 | 1014.0 |
| 20260506105531 | 43 | 62 | 6.0 | 11.0 | 0.00 | 0.00 | 0.00 | 80 | 1014.0 |
| 20260506105031 | 43 | 19 | 2.0 | 5.0 | 0.00 | 0.00 | 0.00 | 80 | 1014.0 |
| 20260506104532 | 43 | 85 | 3.0 | 4.0 | 0.00 | 0.00 | 0.00 | 85 | 1014.0 |
| 20260506104032 | 43 | 119 | 2.0 | 3.0 | 0.00 | 0.00 | 0.00 | 88 | 1014.0 |
| 20260506103531 | 43 | 132 | 3.0 | 4.0 | 0.00 | 0.00 | 0.00 | 89 | 1014.0 |
| 20260506103032 | 43 | 110 | 9.0 | 10.0 | 0.00 | 0.00 | 0.00 | 88 | 1014.0 |
| 20260506102532 | 44 | 121 | 6.0 | 6.0 | 0.00 | 0.00 | 0.00 | 90 | 1014.0 |
| 20260506102031 | 43 | 118 | 5.0 | 5.0 | 0.00 | 0.00 | 0.00 | 89 | 1014.0 |
| 20260506101533 | 43 | 43 | 5.0 | 6.0 | 0.00 | 0.00 | 0.00 | 90 | 1014.0 |
| 20260506101032 | 43 | 23 | 5.0 | 8.0 | 0.00 | 0.00 | 0.00 | 91 | 1013.0 |
| 20260506100531 | 43 | 328 | 4.0 | 9.0 | 0.00 | 0.00 | 0.00 | 90 | 1013.0 |
| 20260506100029 | 44 | 292 | 9.0 | 18.0 | 0.00 | 0.00 | 0.00 | 91 | 1013.0 |
| 20260506095531 | 44 | 280 | 10.0 | 21.0 | 0.00 | 0.00 | 0.00 | 92 | 1013.0 |
| 20260506095031 | 45 | 279 | 10.0 | 16.0 | 0.00 | 0.00 | 0.00 | 91 | 1013.0 |
| 20260506094533 | 46 | 282 | 8.0 | 13.0 | 0.00 | 0.00 | 0.00 | 89 | 1013.0 |
| 20260506094031 | 46 | 314 | 6.0 | 8.0 | 0.00 | 0.00 | 0.00 | 89 | 1013.0 |
| 20260506093532 | 46 | 316 | 6.0 | 11.0 | 0.00 | 0.00 | 0.00 | 88 | 1013.0 |
| 20260506093032 | 46 | 309 | 8.0 | 8.0 | 0.00 | 0.00 | 0.00 | 87 | 1013.0 |
| 20260506092532 | 46 | 290 | 9.0 | 9.0 | 0.00 | 0.00 | 0.00 | 88 | 1013.0 |
| 20260506092030 | 46 | 21 | 2.0 | 6.0 | 0.00 | 0.00 | 0.00 | 88 | 1013.0 |
| 20260506091530 | 47 | 29 | 5.0 | 10.0 | 0.00 | 0.00 | 0.00 | 87 | 1013.0 |
| 20260506091029 | 47 | 356 | 13.0 | 21.0 | 0.00 | 0.00 | 0.00 | 84 | 1013.0 |
| 20260506090531 | 48 | 334 | 7.0 | 13.0 | 0.00 | 0.00 | 0.00 | 83 | 1013.0 |
| 20260506090031 | 49 | 321 | 6.0 | 12.0 | 0.00 | 0.00 | 0.00 | 82 | 1013.0 |
| 20260506085532 | 49 | 289 | 11.0 | 16.0 | 0.00 | 0.00 | 0.00 | 77 | 1012.0 |
| 20260506085032 | 49 | 300 | 10.0 | 14.0 | 0.00 | 0.00 | 0.00 | 71 | 1012.0 |
| 20260506084531 | 49 | 319 | 2.0 | 4.0 | 0.00 | 0.00 | 0.00 | 75 | 1012.0 |
| 20260506084029 | 48 | 24 | 0.0 | 0.0 | 0.00 | 0.00 | 0.00 | 74 | 1012.0 |
| 20260506083531 | 48 | 45 | 1.0 | 3.0 | 0.00 | 0.00 | 0.00 | 77 | 1011.0 |
| 20260506083031 | 48 | 9 | 1.0 | 2.0 | 0.00 | 0.00 | 0.00 | 76 | 1012.0 |
| 20260506082531 | 48 | 0 | 0.0 | 0.0 | 0.00 | 0.00 | 0.00 | 78 | 1011.0 |
| 20260506082031 | 48 | 109 | 3.0 | 4.0 | 0.00 | 0.00 | 0.00 | 79 | 1011.0 |
| 20260506081531 | 48 | 0 | 0.0 | 0.0 | 0.00 | 0.00 | 0.00 | 79 | 1011.0 |
| 20260506081031 | 49 | 88 | 1.0 | 3.0 | 0.00 | 0.00 | 0.00 | 78 | 1011.0 |
| 20260506080531 | 49 | 80 | 4.0 | 5.0 | 0.00 | 0.00 | 0.00 | 78 | 1011.0 |
| 20260506073032 | 52 | 15 | 3.0 | 4.0 | 0.00 | 0.00 | 0.00 | 62 | 1012.0 |
| 20260506072531 | 52 | 313 | 4.0 | 5.0 | 0.00 | 0.00 | 0.00 | 62 | 1012.0 |
| 20260506072032 | 52 | 305 | 2.0 | 4.0 | 0.00 | 0.00 | 0.00 | 60 | 1012.0 |
| 20260506071532 | 51 | 343 | 4.0 | 5.0 | 0.00 | 0.00 | 0.00 | 61 | 1012.0 |
| 20260506071032 | 51 | 0 | 0.0 | 0.0 | 0.00 | 0.00 | 0.00 | 64 | 1012.0 |
| 20260506070529 | 51 | 101 | 0.0 | 2.0 | 0.00 | 0.00 | 0.00 | 66 | 1012.0 |
| 20260506062032 | 51 | 0 | 0.0 | 0.0 | 0.00 | 0.00 | 0.00 | 62 | 1011.0 |
| 20260506061529 | 52 | 95 | 4.0 | 5.0 | 0.00 | 0.00 | 0.00 | 61 | 1011.0 |
| 20260506061031 | 52 | 127 | 4.0 | 4.0 | 0.00 | 0.00 | 0.00 | 60 | 1011.0 |
| 20260506060531 | 52 | 66 | 3.0 | 3.0 | 0.00 | 0.00 | 0.00 | 60 | 1011.0 |
| 20260506051031 | 48 | 55 | 4.0 | 5.0 | 0.00 | 0.00 | 0.00 | 67 | 1010.0 |
| 20260506050530 | 48 | 63 | 5.0 | 7.0 | 0.00 | 0.00 | 0.00 | 67 | 1010.0 |
| 20260506045029 | 48 | 116 | 1.0 | 4.0 | 0.00 | 0.00 | 0.00 | 67 | 1010.0 |
| 20260506044530 | 48 | 59 | 4.0 | 4.0 | 0.00 | 0.00 | 0.00 | 68 | 1010.0 |
| 20260506044029 | 49 | 89 | 4.0 | 6.0 | 0.00 | 0.00 | 0.00 | 68 | 1010.0 |
| 20260506043531 | 49 | 89 | 0.0 | 0.0 | 0.00 | 0.00 | 0.00 | 66 | 1010.0 |
| 20260506043033 | 49 | 96 | 0.0 | 1.0 | 0.00 | 0.00 | 0.00 | 66 | 1010.0 |
| 20260506042530 | 49 | 87 | 4.0 | 4.0 | 0.00 | 0.00 | 0.00 | 65 | 1010.0 |
| 20260506042032 | 50 | 82 | 1.0 | 4.0 | 0.00 | 0.00 | 0.00 | 65 | 1010.0 |
| 20260506041531 | 50 | 110 | 4.0 | 4.0 | 0.00 | 0.00 | 0.00 | 65 | 1010.0 |
| 20260506041029 | 50 | 74 | 5.0 | 7.0 | 0.00 | 0.00 | 0.00 | 64 | 1010.0 |
| 20260506040530 | 50 | 63 | 6.0 | 7.0 | 0.00 | 0.00 | 0.00 | 64 | 1010.0 |
| 20260506040032 | 50 | 66 | 5.0 | 5.0 | 0.00 | 0.00 | 0.00 | 65 | 1010.0 |
| 20260506035530 | 50 | 63 | 2.0 | 4.0 | 0.00 | 0.00 | 0.00 | 65 | 1010.0 |
| 20260506035030 | 51 | 66 | 2.0 | 5.0 | 0.00 | 0.00 | 0.00 | 65 | 1010.0 |
| 20260506034529 | 51 | 92 | 4.0 | 5.0 | 0.00 | 0.00 | 0.00 | 64 | 1010.0 |
| 20260506034031 | 51 | 71 | 6.0 | 6.0 | 0.00 | 0.00 | 0.00 | 64 | 1010.0 |
| 20260506033529 | 51 | 56 | 5.0 | 6.0 | 0.00 | 0.00 | 0.00 | 64 | 1010.0 |
| 20260506033030 | 51 | 61 | 4.0 | 5.0 | 0.00 | 0.00 | 0.00 | 64 | 1010.0 |
| 20260506032531 | 51 | 61 | 5.0 | 6.0 | 0.00 | 0.00 | 0.00 | 64 | 1010.0 |
| 20260506032030 | 51 | 46 | 5.0 | 6.0 | 0.00 | 0.00 | 0.00 | 64 | 1010.0 |
| 20260506031531 | 51 | 60 | 4.0 | 4.0 | 0.00 | 0.00 | 0.00 | 64 | 1010.0 |
| 20260506031032 | 51 | 59 | 4.0 | 5.0 | 0.00 | 0.00 | 0.00 | 64 | 1010.0 |
| 20260506030531 | 51 | 55 | 4.0 | 6.0 | 0.00 | 0.00 | 0.00 | 64 | 1010.0 |
| 20260506030031 | 51 | 72 | 5.0 | 6.0 | 0.00 | 0.00 | 0.00 | 64 | 1010.0 |
| 20260506025530 | 52 | 75 | 5.0 | 6.0 | 0.00 | 0.00 | 0.00 | 64 | 1010.0 |
| 20260506025029 | 52 | 65 | 3.0 | 4.0 | 0.00 | 0.00 | 0.00 | 64 | 1010.0 |
| 20260506024531 | 53 | 79 | 3.0 | 4.0 | 0.00 | 0.00 | 0.00 | 64 | 1010.0 |
| 20260506024032 | 53 | 69 | 4.0 | 4.0 | 0.00 | 0.00 | 0.00 | 64 | 1010.0 |
| 20260506023529 | 53 | 68 | 2.0 | 3.0 | 0.00 | 0.00 | 0.00 | 63 | 1010.0 |
| 20260506023029 | 54 | 103 | 2.0 | 4.0 | 0.00 | 0.00 | 0.00 | 62 | 1010.0 |
| 20260506022531 | 54 | 109 | 2.0 | 3.0 | 0.00 | 0.00 | 0.00 | 62 | 1010.0 |
| 20260506022030 | 54 | 123 | 0.0 | 2.0 | 0.00 | 0.00 | 0.00 | 62 | 1009.0 |
| 20260506021530 | 55 | 152 | 2.0 | 3.0 | 0.00 | 0.00 | 0.00 | 61 | 1009.0 |
| 20260506021030 | 55 | 128 | 5.0 | 6.0 | 0.00 | 0.00 | 0.00 | 61 | 1009.0 |
| 20260506020532 | 56 | 116 | 0.0 | 0.0 | 0.00 | 0.00 | 0.00 | 59 | 1009.0 |
| 20260506020030 | 56 | 0 | 0.0 | 0.0 | 0.00 | 0.00 | 0.00 | 59 | 1009.0 |
| 20260506015529 | 57 | 117 | 1.0 | 3.0 | 0.00 | 0.00 | 0.00 | 57 | 1009.0 |
| 20260506015030 | 57 | 134 | 3.0 | 5.0 | 0.00 | 0.00 | 0.00 | 55 | 1009.0 |
| 20260506014531 | 58 | 100 | 3.0 | 5.0 | 0.00 | 0.00 | 0.00 | 53 | 1009.0 |
| 20260506014030 | 58 | 62 | 2.0 | 3.0 | 0.00 | 0.00 | 0.00 | 53 | 1009.0 |
| 20260506013529 | 58 | 64 | 2.0 | 4.0 | 0.00 | 0.00 | 0.00 | 52 | 1009.0 |
| 20260506013029 | 59 | 57 | 2.0 | 5.0 | 0.00 | 0.00 | 0.00 | 51 | 1009.0 |
| 20260506012531 | 59 | 63 | 0.0 | 0.0 | 0.00 | 0.00 | 0.00 | 50 | 1009.0 |
| 20260506012029 | 59 | 88 | 4.0 | 6.0 | 0.00 | 0.00 | 0.00 | 50 | 1009.0 |
| 20260506011529 | 59 | 94 | 4.0 | 7.0 | 0.00 | 0.00 | 0.00 | 49 | 1009.0 |
| 20260506011031 | 59 | 37 | 0.0 | 0.0 | 0.00 | 0.00 | 0.00 | 49 | 1009.0 |
| 20260506010531 | 58 | 107 | 5.0 | 7.0 | 0.00 | 0.00 | 0.00 | 50 | 1009.0 |
| 20260506010031 | 58 | 125 | 4.0 | 7.0 | 0.00 | 0.00 | 0.00 | 49 | 1009.0 |
| 20260506005531 | 59 | 73 | 3.0 | 5.0 | 0.00 | 0.00 | 0.00 | 48 | 1009.0 |
| 20260506005029 | 58 | 105 | 4.0 | 7.0 | 0.00 | 0.00 | 0.00 | 49 | 1009.0 |
| 20260506004531 | 59 | 129 | 7.0 | 9.0 | 0.00 | 0.00 | 0.00 | 47 | 1009.0 |
| 20260506003551 | 58 | 91 | 0.0 | 2.0 | 0.00 | 0.00 | 0.00 | 50 | 1009.0 |
| 20260506003030 | 58 | 73 | 4.0 | 10.0 | 0.00 | 0.00 | 0.00 | 51 | 1009.0 |
| 20260506002531 | 58 | 126 | 5.0 | 8.0 | 0.00 | 0.00 | 0.00 | 50 | 1009.0 |
| 20260506002031 | 58 | 96 | 0.0 | 1.0 | 0.00 | 0.00 | 0.00 | 49 | 1009.0 |
| 20260506001529 | 58 | 61 | 4.0 | 4.0 | 0.00 | 0.00 | 0.00 | 51 | 1009.0 |
| 20260506001031 | 57 | 67 | 2.0 | 4.0 | 0.00 | 0.00 | 0.00 | 51 | 1009.0 |
| 20260506000531 | 58 | 150 | 5.0 | 9.0 | 0.00 | 0.00 | 0.00 | 52 | 1009.0 |
| 20260506000030 | 57 | 115 | 4.0 | 7.0 | 0.00 | 0.00 | 0.00 | 53 | 1009.0 |
| 20260505235531 | 57 | 328 | 3.0 | 5.0 | 0.00 | 0.00 | 0.00 | 52 | 1009.0 |
| 20260505235031 | 57 | 175 | 0.0 | 0.0 | 0.00 | 0.00 | 0.00 | 53 | 1009.0 |
| 20260505234530 | 57 | 86 | 5.0 | 6.0 | 0.00 | 0.00 | 0.00 | 52 | 1009.0 |
| 20260505234031 | 57 | 51 | 1.0 | 3.0 | 0.00 | 0.00 | 0.00 | 52 | 1009.0 |
| 20260505233531 | 56 | 144 | 1.0 | 3.0 | 0.00 | 0.00 | 0.00 | 52 | 1009.0 |
| 20260505233029 | 57 | 89 | 1.0 | 3.0 | 0.00 | 0.00 | 0.00 | 53 | 1009.0 |
| 20260505232529 | 57 | 77 | 1.0 | 2.0 | 0.00 | 0.00 | 0.00 | 54 | 1009.0 |
| 20260505232031 | 56 | 67 | 4.0 | 6.0 | 0.00 | 0.00 | 0.00 | 54 | 1009.0 |
| 20260505231530 | 56 | 139 | 4.0 | 6.0 | 0.00 | 0.00 | 0.00 | 51 | 1009.0 |
| 20260505231030 | 56 | 60 | 4.0 | 4.0 | 0.00 | 0.00 | 0.00 | 55 | 1009.0 |
| 20260505230531 | 55 | 110 | 2.0 | 4.0 | 0.00 | 0.00 | 0.00 | 54 | 1009.0 |
| 20260505230030 | 56 | 126 | 2.0 | 3.0 | 0.00 | 0.00 | 0.00 | 53 | 1009.0 |
| 20260505225536 | 56 | 11 | 1.0 | 4.0 | 0.00 | 0.00 | 0.00 | 55 | 1009.0 |
| 20260505225029 | 55 | 14 | 1.0 | 4.0 | 0.00 | 0.00 | 0.00 | 58 | 1009.0 |
| 20260505224530 | 55 | 295 | 0.0 | 2.0 | 0.00 | 0.00 | 0.00 | 56 | 1010.0 |
| 20260505224029 | 55 | 112 | 0.0 | 0.0 | 0.00 | 0.00 | 0.00 | 55 | 1010.0 |
| 20260505223529 | 55 | 95 | 4.0 | 4.0 | 0.00 | 0.00 | 0.00 | 53 | 1010.0 |
| 20260505223031 | 55 | 81 | 0.0 | 0.0 | 0.00 | 0.00 | 0.00 | 57 | 1010.0 |
| 20260505222530 | 55 | 0 | 0.0 | 0.0 | 0.00 | 0.00 | 0.00 | 57 | 1010.0 |
| 20260505222031 | 55 | 102 | 2.0 | 3.0 | 0.00 | 0.00 | 0.00 | 53 | 1010.0 |
| 20260505221531 | 56 | 12 | 6.0 | 6.0 | 0.00 | 0.00 | 0.00 | 53 | 1010.0 |
| 20260505221030 | 55 | 0 | 0.0 | 0.0 | 0.00 | 0.00 | 0.00 | 54 | 1010.0 |
| 20260505220531 | 55 | 304 | 4.0 | 5.0 | 0.00 | 0.00 | 0.00 | 49 | 1010.0 |
| 20260505220032 | 55 | 317 | 0.0 | 3.0 | 0.00 | 0.00 | 0.00 | 50 | 1010.0 |
| 20260505215531 | 55 | 74 | 0.0 | 0.0 | 0.00 | 0.00 | 0.00 | 49 | 1010.0 |
| 20260505215031 | 55 | 0 | 0.0 | 0.0 | 0.00 | 0.00 | 0.00 | 50 | 1010.0 |
| 20260505214530 | 55 | 151 | 4.0 | 4.0 | 0.00 | 0.00 | 0.00 | 50 | 1010.0 |
| 20260505214029 | 55 | 116 | 0.0 | 1.0 | 0.00 | 0.00 | 0.00 | 52 | 1010.0 |
| 20260505213531 | 55 | 74 | 3.0 | 4.0 | 0.00 | 0.00 | 0.00 | 51 | 1010.0 |
| 20260505213029 | 55 | 123 | 0.0 | 0.0 | 0.00 | 0.00 | 0.00 | 50 | 1010.0 |
| 20260505212531 | 55 | 123 | 0.0 | 2.0 | 0.00 | 0.00 | 0.00 | 49 | 1010.0 |
| 20260505212031 | 55 | 152 | 2.0 | 4.0 | 0.00 | 0.00 | 0.00 | 49 | 1010.0 |
| 20260505211531 | 55 | 105 | 1.0 | 2.0 | 0.00 | 0.00 | 0.00 | 49 | 1010.0 |
| 20260505211032 | 55 | 114 | 2.0 | 3.0 | 0.00 | 0.00 | 0.00 | 49 | 1010.0 |
| 20260505210534 | 55 | 76 | 2.0 | 4.0 | 0.00 | 0.00 | 0.00 | 51 | 1010.0 |
| 20260505210032 | 55 | 120 | 2.0 | 4.0 | 0.00 | 0.00 | 0.00 | 51 | 1010.0 |
| 20260505205531 | 55 | 83 | 4.0 | 5.0 | 0.00 | 0.00 | 0.00 | 49 | 1010.0 |
| 20260505205031 | 55 | 141 | 4.0 | 5.0 | 0.00 | 0.00 | 0.00 | 49 | 1010.0 |
| 20260505204531 | 55 | 129 | 2.0 | 5.0 | 0.00 | 0.00 | 0.00 | 50 | 1010.0 |
| 20260505204033 | 55 | 112 | 3.0 | 5.0 | 0.00 | 0.00 | 0.00 | 51 | 1010.0 |
| 20260505203531 | 55 | 115 | 2.0 | 4.0 | 0.00 | 0.00 | 0.00 | 50 | 1010.0 |
| 20260505203031 | 55 | 103 | 3.0 | 6.0 | 0.00 | 0.00 | 0.00 | 52 | 1010.0 |